Time,TemperatureF,DewpointF,PressureIn,WindDirection,WindDirectionDegrees,WindSpeedMPH,WindSpeedGustMPH,Humidity,HourlyPrecipIn,Conditions,Clouds,dailyrainin,SoftwareType,DateUTC
2013-03-05 00:02:00,38.0,28.0,-100.00,NNE,18,1.0,2.0,68,-99.99,,,-99.99,,2013-03-05 08:02:00,
2013-03-05 00:11:00,40.0,29.0,-100.00,WNW,282,1.0,2.0,65,-99.99,,,-99.99,,2013-03-05 08:11:00,
2013-03-05 00:21:00,39.0,29.0,-100.00,NE,37,0.0,2.0,66,-99.99,,,-99.99,,2013-03-05 08:21:00,
2013-03-05 00:41:00,40.0,29.0,-100.00,ENE,71,1.0,3.0,64,-99.99,,,-99.99,,2013-03-05 08:41:00,
2013-03-05 00:52:00,42.0,30.0,-100.00,NE,52,1.0,3.0,61,-99.99,,,-99.99,,2013-03-05 08:52:00,
2013-03-05 01:01:00,40.0,28.0,-100.00,NE,52,2.0,3.0,63,-99.99,,,-99.99,,2013-03-05 09:01:00,
2013-03-05 01:11:00,39.0,29.0,-100.00,NE,53,1.0,3.0,66,-99.99,,,-99.99,,2013-03-05 09:11:00,
2013-03-05 01:21:00,39.0,29.0,-100.00,NE,53,1.0,3.0,66,-99.99,,,-99.99,,2013-03-05 09:21:00,
2013-03-05 01:31:00,39.0,29.0,-100.00,ENE,59,2.0,3.0,66,-99.99,,,-99.99,,2013-03-05 09:31:00,
2013-03-05 01:42:00,38.0,28.0,-100.00,ENE,68,1.0,4.0,68,-99.99,,,-99.99,,2013-03-05 09:42:00,
2013-03-05 01:51:00,38.0,29.0,-100.00,ENE,60,2.0,4.0,69,-99.99,,,-99.99,,2013-03-05 09:51:00,
2013-03-05 02:01:00,38.0,29.0,-100.00,ENE,60,2.0,4.0,69,-99.99,,,-99.99,,2013-03-05 10:01:00,
2013-03-05 02:11:00,37.0,28.0,-100.00,ENE,60,3.0,5.0,69,-99.99,,,-99.99,,2013-03-05 10:11:00,
2013-03-05 02:21:00,36.0,28.0,-100.00,NNE,20,2.0,4.0,72,-99.99,,,-99.99,,2013-03-05 10:21:00,
2013-03-05 02:32:00,37.0,28.0,-100.00,ENE,57,1.0,3.0,70,-99.99,,,-99.99,,2013-03-05 10:32:00,
2013-03-05 02:41:00,37.0,28.0,-100.00,NE,49,2.0,3.0,69,-99.99,,,-99.99,,2013-03-05 10:41:00,
2013-03-05 02:51:00,36.0,28.0,-100.00,NE,44,1.0,3.0,71,-99.99,,,-99.99,,2013-03-05 10:51:00,
2013-03-05 03:11:00,37.0,28.0,-100.00,NE,49,2.0,3.0,69,-99.99,,,-99.99,,2013-03-05 11:11:00,
2013-03-05 03:21:00,38.0,29.0,-100.00,NE,46,2.0,3.0,69,-99.99,,,-99.99,,2013-03-05 11:21:00,
2013-03-05 03:32:00,38.0,29.0,-100.00,NNE,28,1.0,2.0,69,-99.99,,,-99.99,,2013-03-05 11:32:00,
2013-03-05 03:42:00,37.0,28.0,-100.00,NE,42,1.0,2.0,71,-99.99,,,-99.99,,2013-03-05 11:42:00,
2013-03-05 03:52:00,38.0,29.0,-100.00,ENE,58,1.0,4.0,71,-99.99,,,-99.99,,2013-03-05 11:52:00,
2013-03-05 04:02:00,38.0,29.0,-100.00,NE,47,2.0,3.0,70,-99.99,,,-99.99,,2013-03-05 12:02:00,
2013-03-05 04:11:00,37.0,28.0,-100.00,NNE,31,2.0,3.0,71,-99.99,,,-99.99,,2013-03-05 12:11:00,
2013-03-05 04:22:00,37.0,28.0,-100.00,ENE,64,2.0,3.0,71,-99.99,,,-99.99,,2013-03-05 12:22:00,
2013-03-05 04:32:00,37.0,28.0,-100.00,ENE,67,1.0,3.0,71,-99.99,,,-99.99,,2013-03-05 12:32:00,
2013-03-05 04:42:00,37.0,29.0,-100.00,ENE,73,3.0,5.0,74,-99.99,,,-99.99,,2013-03-05 12:42:00,
2013-03-05 04:52:00,37.0,29.0,-100.00,ENE,59,3.0,5.0,73,-99.99,,,-99.99,,2013-03-05 12:52:00,
2013-03-05 05:01:00,35.0,29.0,-100.00,NNE,27,1.0,3.0,77,-99.99,,,-99.99,,2013-03-05 13:01:00,
2013-03-05 05:11:00,36.0,29.0,-100.00,NE,47,2.0,4.0,76,-99.99,,,-99.99,,2013-03-05 13:11:00,
2013-03-05 05:21:00,36.0,29.0,-100.00,East,96,2.0,4.0,75,-99.99,,,-99.99,,2013-03-05 13:21:00,
2013-03-05 05:31:00,36.0,29.0,-100.00,East,96,2.0,4.0,75,-99.99,,,-99.99,,2013-03-05 13:31:00,
2013-03-05 05:42:00,37.0,29.0,-100.00,ENE,68,3.0,5.0,74,-99.99,,,-99.99,,2013-03-05 13:42:00,
2013-03-05 05:51:00,41.0,29.0,-100.00,East,97,4.0,5.0,62,-99.99,,,-99.99,,2013-03-05 13:51:00,
2013-03-05 06:02:00,41.0,29.0,-100.00,ESE,104,2.0,4.0,62,-99.99,,,-99.99,,2013-03-05 14:02:00,
2013-03-05 06:11:00,40.0,30.0,-100.00,East,97,3.0,5.0,66,-99.99,,,-99.99,,2013-03-05 14:11:00,
2013-03-05 06:21:00,40.0,30.0,-100.00,East,95,1.0,4.0,66,-99.99,,,-99.99,,2013-03-05 14:21:00,
2013-03-05 06:31:00,39.0,29.0,-100.00,ENE,65,2.0,4.0,68,-99.99,,,-99.99,,2013-03-05 14:31:00,
2013-03-05 06:41:00,42.0,30.0,-100.00,ESE,114,2.0,4.0,62,-99.99,,,-99.99,,2013-03-05 14:41:00,
2013-03-05 06:52:00,42.0,30.0,-100.00,East,89,3.0,5.0,61,-99.99,,,-99.99,,2013-03-05 14:52:00,
2013-03-05 07:01:00,44.0,30.0,-100.00,East,97,2.0,4.0,57,-99.99,,,-99.99,,2013-03-05 15:01:00,
2013-03-05 07:11:00,44.0,30.0,-100.00,East,96,2.0,4.0,57,-99.99,,,-99.99,,2013-03-05 15:11:00,
2013-03-05 07:21:00,44.0,30.0,-100.00,ESE,102,1.0,2.0,58,-99.99,,,-99.99,,2013-03-05 15:21:00,
2013-03-05 07:31:00,44.0,29.0,-100.00,ESE,116,1.0,3.0,56,-99.99,,,-99.99,,2013-03-05 15:31:00,
2013-03-05 07:42:00,45.0,30.0,-100.00,SE,127,1.0,3.0,55,-99.99,,,-99.99,,2013-03-05 15:42:00,
2013-03-05 07:51:00,45.0,29.0,-100.00,SE,146,3.0,4.0,54,-99.99,,,-99.99,,2013-03-05 15:51:00,
2013-03-05 08:01:00,46.0,29.0,-100.00,SE,137,3.0,5.0,52,-99.99,,,-99.99,,2013-03-05 16:01:00,
2013-03-05 08:11:00,47.0,29.0,-100.00,SE,145,3.0,5.0,50,-99.99,,,-99.99,,2013-03-05 16:11:00,
2013-03-05 08:21:00,48.0,30.0,-100.00,SSE,155,3.0,4.0,50,-99.99,,,-99.99,,2013-03-05 16:21:00,
2013-03-05 08:31:00,50.0,29.0,-100.00,South,169,5.0,6.0,45,-99.99,,,-99.99,,2013-03-05 16:31:00,
2013-03-05 08:41:00,50.0,29.0,-100.00,South,169,5.0,6.0,45,-99.99,,,-99.99,,2013-03-05 16:41:00,
2013-03-05 08:51:00,50.0,29.0,-100.00,South,171,4.0,5.0,45,-99.99,,,-99.99,,2013-03-05 16:51:00,
2013-03-05 09:01:00,51.0,30.0,-100.00,SSE,159,4.0,7.0,45,-99.99,,,-99.99,,2013-03-05 17:01:00,
2013-03-05 09:11:00,51.0,29.0,-100.00,SE,146,4.0,9.0,42,-99.99,,,-99.99,,2013-03-05 17:11:00,
2013-03-05 09:21:00,52.0,28.0,-100.00,SE,142,3.0,7.0,40,-99.99,,,-99.99,,2013-03-05 17:21:00,
2013-03-05 09:32:00,52.0,28.0,-100.00,SE,142,3.0,6.0,39,-99.99,,,-99.99,,2013-03-05 17:32:00,
2013-03-05 09:41:00,53.0,29.0,-100.00,SSE,166,4.0,7.0,39,-99.99,,,-99.99,,2013-03-05 17:41:00,
2013-03-05 09:52:00,53.0,29.0,-100.00,SSE,156,5.0,10.0,39,-99.99,,,-99.99,,2013-03-05 17:52:00,
2013-03-05 10:01:00,54.0,29.0,-100.00,SSE,150,6.0,10.0,38,-99.99,,,-99.99,,2013-03-05 18:01:00,
2013-03-05 10:11:00,54.0,29.0,-100.00,SSE,149,7.0,16.0,38,-99.99,,,-99.99,,2013-03-05 18:11:00,
2013-03-05 10:21:00,54.0,29.0,-100.00,SSE,168,10.0,16.0,38,-99.99,,,-99.99,,2013-03-05 18:21:00,
2013-03-05 10:31:00,54.0,28.0,-100.00,SSE,159,9.0,17.0,37,-99.99,,,-99.99,,2013-03-05 18:31:00,
2013-03-05 10:41:00,55.0,30.0,-100.00,SSE,165,7.0,14.0,38,-99.99,,,-99.99,,2013-03-05 18:41:00,
2013-03-05 10:52:00,55.0,32.0,-100.00,South,178,9.0,17.0,41,-99.99,,,-99.99,,2013-03-05 18:52:00,
2013-03-05 11:01:00,54.0,31.0,-100.00,South,171,10.0,14.0,41,-99.99,,,-99.99,,2013-03-05 19:01:00,
2013-03-05 11:11:00,54.0,30.0,-100.00,South,171,9.0,16.0,39,-99.99,,,-99.99,,2013-03-05 19:11:00,
2013-03-05 11:21:00,56.0,31.0,-100.00,South,171,8.0,14.0,38,-99.99,,,-99.99,,2013-03-05 19:21:00,
2013-03-05 11:31:00,56.0,29.0,-100.00,South,174,8.0,14.0,36,-99.99,,,-99.99,,2013-03-05 19:31:00,
2013-03-05 11:41:00,56.0,30.0,-100.00,South,179,7.0,14.0,37,-99.99,,,-99.99,,2013-03-05 19:41:00,
2013-03-05 11:51:00,56.0,29.0,-100.00,South,169,8.0,15.0,36,-99.99,,,-99.99,,2013-03-05 19:51:00,
2013-03-05 12:01:00,55.0,29.0,-100.00,South,183,9.0,15.0,36,-99.99,,,-99.99,,2013-03-05 20:01:00,
2013-03-05 12:11:00,56.0,29.0,-100.00,South,191,10.0,17.0,35,-99.99,,,-99.99,,2013-03-05 20:11:00,
2013-03-05 12:21:00,56.0,28.0,-100.00,South,187,9.0,16.0,34,-99.99,,,-99.99,,2013-03-05 20:21:00,
2013-03-05 12:32:00,57.0,27.0,-100.00,South,189,10.0,19.0,31,-99.99,,,-99.99,,2013-03-05 20:32:00,
2013-03-05 12:41:00,57.0,25.0,-100.00,South,188,11.0,20.0,29,-99.99,,,-99.99,,2013-03-05 20:41:00,
2013-03-05 12:52:00,56.0,25.0,-100.00,South,183,10.0,18.0,30,-99.99,,,-99.99,,2013-03-05 20:52:00,
2013-03-05 13:01:00,57.0,25.0,-100.00,South,185,10.0,21.0,29,-99.99,,,-99.99,,2013-03-05 21:01:00,
2013-03-05 13:11:00,56.0,27.0,-100.00,South,187,8.0,19.0,33,-99.99,,,-99.99,,2013-03-05 21:11:00,
2013-03-05 13:21:00,58.0,27.0,-100.00,SSW,193,11.0,21.0,30,-99.99,,,-99.99,,2013-03-05 21:21:00,
2013-03-05 13:31:00,57.0,24.0,-100.00,South,171,10.0,17.0,28,-99.99,,,-99.99,,2013-03-05 21:31:00,
2013-03-05 13:41:00,57.0,27.0,-100.00,South,187,9.0,16.0,32,-99.99,,,-99.99,,2013-03-05 21:41:00,
2013-03-05 13:52:00,58.0,31.0,-100.00,SSW,197,9.0,17.0,36,-99.99,,,-99.99,,2013-03-05 21:52:00,
2013-03-05 14:01:00,57.0,32.0,-100.00,SSW,202,9.0,17.0,39,-99.99,,,-99.99,,2013-03-05 22:01:00,
2013-03-05 14:11:00,57.0,34.0,-100.00,South,191,10.0,21.0,41,-99.99,,,-99.99,,2013-03-05 22:11:00,
2013-03-05 14:21:00,57.0,33.0,-100.00,SW,214,8.0,17.0,40,-99.99,,,-99.99,,2013-03-05 22:21:00,
2013-03-05 14:31:00,57.0,33.0,-100.00,SSW,197,9.0,18.0,40,-99.99,,,-99.99,,2013-03-05 22:31:00,
2013-03-05 14:41:00,57.0,34.0,-100.00,SSW,211,9.0,19.0,41,-99.99,,,-99.99,,2013-03-05 22:41:00,
2013-03-05 14:52:00,57.0,30.0,-100.00,SSW,199,7.0,17.0,36,-99.99,,,-99.99,,2013-03-05 22:52:00,
2013-03-05 15:01:00,56.0,28.0,-100.00,SSW,208,7.0,14.0,34,-99.99,,,-99.99,,2013-03-05 23:01:00,
2013-03-05 15:11:00,56.0,27.0,-100.00,SSW,213,6.0,15.0,33,-99.99,,,-99.99,,2013-03-05 23:11:00,
2013-03-05 15:21:00,57.0,25.0,-100.00,SW,219,7.0,18.0,29,-99.99,,,-99.99,,2013-03-05 23:21:00,
2013-03-05 15:32:00,56.0,24.0,-100.00,SSW,199,10.0,17.0,29,-99.99,,,-99.99,,2013-03-05 23:32:00,
2013-03-05 15:41:00,56.0,25.0,-100.00,SSW,197,10.0,16.0,30,-99.99,,,-99.99,,2013-03-05 23:41:00,
2013-03-05 15:52:00,55.0,29.0,-100.00,SSW,202,9.0,17.0,37,-99.99,,,-99.99,,2013-03-05 23:52:00,
2013-03-05 16:01:00,55.0,29.0,-100.00,SSW,202,9.0,17.0,37,-99.99,,,-99.99,,2013-03-06 00:01:00,
2013-03-05 16:11:00,55.0,31.0,-100.00,SSW,197,10.0,18.0,39,-99.99,,,-99.99,,2013-03-06 00:11:00,
2013-03-05 16:21:00,54.0,30.0,-100.00,SSW,206,11.0,17.0,39,-99.99,,,-99.99,,2013-03-06 00:21:00,
2013-03-05 16:32:00,54.0,30.0,-100.00,SSW,206,9.0,17.0,39,-99.99,,,-99.99,,2013-03-06 00:32:00,
2013-03-05 16:41:00,54.0,30.0,-100.00,SSW,206,9.0,17.0,39,-99.99,,,-99.99,,2013-03-06 00:41:00,
2013-03-05 16:51:00,53.0,30.0,-100.00,SW,214,9.0,15.0,41,-99.99,,,-99.99,,2013-03-06 00:51:00,
2013-03-05 17:01:00,53.0,30.0,-100.00,SW,216,10.0,17.0,41,-99.99,,,-99.99,,2013-03-06 01:01:00,
2013-03-05 17:11:00,53.0,31.0,-100.00,SSW,213,9.0,16.0,42,-99.99,,,-99.99,,2013-03-06 01:11:00,
2013-03-05 17:21:00,52.0,30.0,-100.00,SSW,200,10.0,16.0,43,-99.99,,,-99.99,,2013-03-06 01:21:00,
2013-03-05 17:31:00,51.0,31.0,-100.00,SSW,196,9.0,16.0,46,-99.99,,,-99.99,,2013-03-06 01:31:00,
2013-03-05 17:41:00,51.0,31.0,-100.00,SSW,205,8.0,14.0,47,-99.99,,,-99.99,,2013-03-06 01:41:00,
2013-03-05 17:51:00,49.0,31.0,-100.00,SSW,197,6.0,10.0,50,-99.99,,,-99.99,,2013-03-06 01:51:00,
2013-03-05 18:01:00,49.0,31.0,-100.00,SSW,197,6.0,10.0,50,-99.99,,,-99.99,,2013-03-06 02:01:00,
2013-03-05 18:11:00,49.0,32.0,-100.00,SSW,193,7.0,13.0,51,-99.99,,,-99.99,,2013-03-06 02:11:00,
2013-03-05 18:21:00,48.0,31.0,-100.00,South,187,8.0,14.0,51,-99.99,,,-99.99,,2013-03-06 02:21:00,
2013-03-05 18:31:00,47.0,29.0,-100.00,South,183,7.0,13.0,49,-99.99,,,-99.99,,2013-03-06 02:31:00,
2013-03-05 18:41:00,46.0,29.0,-100.00,South,178,6.0,9.0,51,-99.99,,,-99.99,,2013-03-06 02:41:00,
2013-03-05 18:52:00,46.0,28.0,-100.00,South,175,7.0,11.0,49,-99.99,,,-99.99,,2013-03-06 02:52:00,
2013-03-05 19:01:00,46.0,27.0,-100.00,South,177,6.0,10.0,48,-99.99,,,-99.99,,2013-03-06 03:01:00,
2013-03-05 19:11:00,46.0,28.0,-100.00,South,172,6.0,11.0,49,-99.99,,,-99.99,,2013-03-06 03:11:00,
2013-03-05 19:21:00,45.0,28.0,-100.00,South,171,4.0,7.0,51,-99.99,,,-99.99,,2013-03-06 03:21:00,
2013-03-05 19:31:00,46.0,29.0,-100.00,SSE,147,4.0,7.0,52,-99.99,,,-99.99,,2013-03-06 03:31:00,
2013-03-05 19:41:00,45.0,28.0,-100.00,SSE,157,3.0,7.0,52,-99.99,,,-99.99,,2013-03-06 03:41:00,
2013-03-05 19:52:00,44.0,29.0,-100.00,ENE,74,1.0,3.0,55,-99.99,,,-99.99,,2013-03-06 03:52:00,
2013-03-05 20:01:00,43.0,28.0,-100.00,ESE,111,2.0,4.0,55,-99.99,,,-99.99,,2013-03-06 04:01:00,
2013-03-05 20:11:00,43.0,27.0,-100.00,East,95,1.0,2.0,53,-99.99,,,-99.99,,2013-03-06 04:11:00,
2013-03-05 20:21:00,44.0,28.0,-100.00,ESE,108,2.0,4.0,52,-99.99,,,-99.99,,2013-03-06 04:21:00,
2013-03-05 20:31:00,42.0,27.0,-100.00,SE,137,2.0,4.0,54,-99.99,,,-99.99,,2013-03-06 04:31:00,
2013-03-05 20:41:00,41.0,27.0,-100.00,SSE,150,2.0,3.0,56,-99.99,,,-99.99,,2013-03-06 04:41:00,
2013-03-05 20:51:00,40.0,25.0,-100.00,SE,136,2.0,4.0,55,-99.99,,,-99.99,,2013-03-06 04:51:00,
2013-03-05 21:01:00,39.0,25.0,-100.00,SE,137,3.0,5.0,57,-99.99,,,-99.99,,2013-03-06 05:01:00,
2013-03-05 21:11:00,39.0,25.0,-100.00,SE,134,2.0,3.0,56,-99.99,,,-99.99,,2013-03-06 05:11:00,
2013-03-05 21:22:00,39.0,23.0,-100.00,SSE,148,3.0,4.0,52,-99.99,,,-99.99,,2013-03-06 05:22:00,
2013-03-05 21:32:00,39.0,23.0,-100.00,South,171,3.0,5.0,53,-99.99,,,-99.99,,2013-03-06 05:32:00,
2013-03-05 21:42:00,38.0,23.0,-100.00,SSE,154,2.0,5.0,54,-99.99,,,-99.99,,2013-03-06 05:42:00,
2013-03-05 21:52:00,37.0,24.0,-100.00,SSE,152,2.0,4.0,58,-99.99,,,-99.99,,2013-03-06 05:52:00,
2013-03-05 22:01:00,37.0,24.0,-100.00,SSE,152,2.0,4.0,58,-99.99,,,-99.99,,2013-03-06 06:01:00,
2013-03-05 22:11:00,35.0,24.0,-100.00,South,172,2.0,5.0,64,-99.99,,,-99.99,,2013-03-06 06:11:00,
2013-03-05 22:22:00,34.0,25.0,-100.00,NE,38,1.0,3.0,70,-99.99,,,-99.99,,2013-03-06 06:22:00,
2013-03-05 22:31:00,31.0,24.0,-100.00,SE,137,2.0,4.0,74,-99.99,,,-99.99,,2013-03-06 06:31:00,
2013-03-05 22:52:00,32.0,26.0,-100.00,SSE,154,1.0,2.0,77,-99.99,,,-99.99,,2013-03-06 06:52:00,
2013-03-05 23:01:00,32.0,26.0,-100.00,SSE,154,1.0,2.0,77,-99.99,,,-99.99,,2013-03-06 07:01:00,
2013-03-05 23:11:00,32.0,23.0,-100.00,ESE,103,0.0,2.0,68,-99.99,,,-99.99,,2013-03-06 07:11:00,
2013-03-05 23:22:00,36.0,19.0,-100.00,SE,124,3.0,5.0,50,-99.99,,,-99.99,,2013-03-06 07:22:00,
2013-03-05 23:31:00,38.0,17.0,-100.00,ESE,120,3.0,6.0,42,-99.99,,,-99.99,,2013-03-06 07:31:00,
2013-03-05 23:42:00,36.0,17.0,-100.00,ESE,123,1.0,5.0,46,-99.99,,,-99.99,,2013-03-06 07:42:00,
2013-03-05 23:52:00,33.0,18.0,-100.00,SW,219,0.0,2.0,53,-99.99,,,-99.99,,2013-03-06 07:52:00,